Location: Newark
(44.3681°N, 100.3364°W)
Time: 23:00:45
(UTC+00:00)

deb Explorer IX - All Passes

Search period start: 18 February 2020 00:00
Search period end: 28 February 2020 00:00
Orbit: 549 x 1099 km, 38.8° (Epoch: 18 February)

Date Brightness Start Highest point End Pass type
(mag) Time Alt. Az. Time Alt. Az. Time Alt. Az.
18 Feb - 00:44:05 10° SW 00:46:12 13° SSW 00:48:27 10° S visible
18 Feb - 19:01:38 10° SW 19:05:04 26° SSE 19:08:35 10° ESE daylight
18 Feb - 20:47:25 10° WSW 20:51:19 40° S 20:55:31 10° ESE daylight
18 Feb - 22:33:54 10° WSW 22:37:40 29° SSW 22:41:51 10° SE daylight
19 Feb - 00:22:10 10° SW 00:23:52 12° SSW 00:25:40 10° S daylight
19 Feb - 18:39:20 10° SW 18:42:48 26° SSE 18:46:17 10° ESE daylight
19 Feb - 20:25:12 10° WSW 20:29:04 39° S 20:33:09 10° ESE daylight
19 Feb - 22:11:43 10° WSW 22:15:23 28° SSW 22:19:24 10° SE daylight
20 Feb - 00:00:21 10° SW 00:01:33 11° SSW 00:02:47 10° SSW daylight
20 Feb - 18:17:03 10° SW 18:20:33 26° SSE 18:24:02 10° ESE daylight
20 Feb - 20:02:58 10° WSW 20:06:48 39° S 20:10:48 10° ESE daylight
20 Feb - 21:49:32 10° WSW 21:53:07 27° SSW 21:56:57 10° SE daylight
20 Feb - 23:39:07 10° SSW 23:39:13 10° SSW 23:39:20 10° SSW daylight
21 Feb - 17:54:43 10° SW 17:58:17 27° SSE 18:01:47 10° ESE daylight
21 Feb - 19:40:43 10° WSW 19:44:34 38° S 19:48:29 10° ESE daylight
21 Feb - 21:27:22 10° WSW 21:30:50 26° SSW 21:34:33 10° SE daylight
22 Feb - 15:49:24 10° SSE 15:49:58 10° SSE 15:50:32 10° SE daylight
22 Feb - 17:32:22 10° SW 17:36:02 27° SSE 17:39:33 10° ESE daylight
22 Feb - 19:18:27 10° WSW 19:22:18 38° S 19:26:11 10° ESE daylight
22 Feb - 21:05:09 10° WSW 21:08:34 25° SSW 21:12:09 10° SE daylight
23 Feb - 15:26:26 10° SSE 15:27:40 11° SSE 15:28:51 10° SE daylight
23 Feb - 17:10:00 10° SW 17:13:45 28° SSE 17:17:20 10° ESE daylight
23 Feb - 18:56:10 10° WSW 19:00:03 38° S 19:03:54 10° ESE daylight
23 Feb - 20:42:56 10° WSW 20:46:19 24° SSW 20:49:47 10° SE daylight
24 Feb - 15:03:40 10° S 15:05:21 12° SSE 15:06:59 10° SE daylight
24 Feb - 16:47:35 10° SW 16:51:30 29° SSE 16:55:08 10° ESE daylight
24 Feb - 18:33:51 10° WSW 18:37:49 38° S 18:41:39 10° ESE daylight
24 Feb - 20:20:42 10° WSW 20:24:02 24° SSW 20:27:27 10° SE daylight
25 Feb - 14:40:58 10° S 14:43:02 13° SSE 14:45:02 10° SE daylight
25 Feb - 16:25:10 10° SW 16:29:14 30° SSE 16:32:57 10° ESE daylight
25 Feb - 18:11:31 10° WSW 18:15:33 39° S 18:19:24 10° ESE daylight
25 Feb - 19:58:27 10° WSW 20:01:47 24° SSW 20:05:07 10° SE daylight
26 Feb - 14:18:16 10° S 14:20:43 13° SSE 14:23:02 10° ESE daylight
26 Feb - 16:02:44 10° SW 16:06:56 31° SSE 16:10:46 10° ESE daylight
26 Feb - 17:49:10 10° WSW 17:53:18 39° S 17:57:10 10° ESE daylight
26 Feb - 19:36:10 10° WSW 19:39:31 23° SSW 19:42:49 10° SSE daylight
27 Feb - 13:55:36 10° S 13:58:24 14° SSE 14:01:00 10° ESE daylight
27 Feb - 15:40:16 10° SW 15:44:39 32° SSE 15:48:35 10° ESE daylight
27 Feb - 17:26:48 10° WSW 17:31:02 40° S 17:34:57 10° ESE daylight
27 Feb - 19:13:53 10° WSW 19:17:15 23° SSW 19:20:32 10° SSE daylight
